Location: Newark
(54.2500°N, 9.1833°E)
Time: 07:28:56
(UTC+00:00)

Transit 4A - Pass Details

Date: 25 December 2019
Orbit: 872 x 973 km, 66.8° (Epoch: 27 January)

Event Time Altitude Azimuth Distance (km) Brightness Sun altitude
Rises 19:03:20 0° 311° (NW) 3,518 11.6 -33.3°
Reaches altitude 10° 19:06:07 10° 321° (NW) 2,562 10.7 -33.7°
Enters shadow 19:09:02 24° 343° (NNW) 1,735 9.4 -34.1°
